Location: Trebic
(49.2170°N, 15.8830°E)
Time: 23:57:57
(UTC+02:00)

Altair - All Passes

Search period start: 22 October 2019 00:00
Search period end: 31 October 2019 23:00
Orbit: 1501 x 1682 km, 47.2° (Epoch: 21 October)

Date Brightness Start Highest point End Pass type
(mag) Time Alt. Az. Time Alt. Az. Time Alt. Az.
22 Oct - 09:36:22 10° S 09:42:34 20° SE 09:48:54 10° E daylight
22 Oct - 11:36:29 10° SW 11:45:32 52° SSE 11:54:57 10° ENE daylight
22 Oct - 13:40:10 10° WSW 13:49:49 79° S 13:59:51 10° E daylight
22 Oct - 15:44:44 10° W 15:54:30 71° SSW 16:04:33 10° ESE daylight
22 Oct - 17:49:34 10° WNW 17:58:25 38° SW 18:07:26 10° SSE daylight
22 Oct - 19:58:40 10° WSW 20:00:58 11° WSW 20:03:16 10° SW visible
23 Oct - 09:11:52 10° SSE 09:17:34 18° SE 09:23:23 10° E daylight
23 Oct - 11:11:30 10° SW 11:20:26 50° SSE 11:29:43 10° ENE daylight
23 Oct - 13:15:01 10° WSW 13:24:38 78° S 13:34:37 10° E daylight
23 Oct - 15:19:34 10° W 15:29:19 73° SSW 15:39:22 10° ESE daylight
23 Oct - 17:24:20 10° WNW 17:33:19 41° SW 17:42:29 10° SSE daylight
23 Oct - 19:32:18 10° W 19:35:59 13° WSW 19:39:41 10° SW visible
24 Oct - 08:47:28 10° SSE 08:52:35 16° SE 08:57:48 10° E daylight
24 Oct - 10:46:31 10° SW 10:55:20 47° SE 11:04:29 10° ENE daylight
24 Oct - 12:49:53 10° WSW 12:59:26 77° S 13:09:24 10° E daylight
24 Oct - 14:54:25 10° W 15:04:08 75° SSW 15:14:11 10° ESE daylight
24 Oct - 16:59:08 10° WNW 17:08:13 43° SW 17:17:30 10° SSE daylight
24 Oct - 19:06:23 10° W 19:10:59 14° SW 19:15:37 10° SSW visible
25 Oct - 08:23:12 10° SSE 08:27:37 14° SE 08:32:06 10° E daylight
25 Oct - 10:21:34 10° SSW 10:30:15 44° SE 10:39:15 10° ENE daylight
25 Oct - 12:24:46 10° WSW 12:34:16 76° SSE 12:44:10 10° E daylight
25 Oct - 14:29:15 10° W 14:38:57 76° SSW 14:48:59 10° ESE daylight
25 Oct - 16:33:56 10° WNW 16:43:06 45° SW 16:52:30 10° SSE daylight
25 Oct - 18:40:39 10° W 18:45:58 16° SW 18:51:20 10° SSW visible
26 Oct - 07:59:08 10° SE 08:02:39 13° ESE 08:06:12 10° E daylight
26 Oct - 09:56:38 10° SSW 10:05:10 42° SE 10:14:00 10° ENE daylight
26 Oct - 11:59:38 10° WSW 12:09:05 74° SSE 12:18:57 10° E daylight
26 Oct - 14:04:05 10° W 14:13:45 77° S 14:23:47 10° ESE daylight
26 Oct - 16:08:44 10° WNW 16:17:59 48° SSW 16:27:28 10° SE daylight
26 Oct - 18:15:04 10° W 18:20:57 18° SW 18:26:55 10° SSW visible
27 Oct - 06:35:32 10° SE 06:37:42 11° ESE 06:39:51 10° ESE daylight
27 Oct - 08:31:43 10° SSW 08:40:06 39° SE 08:48:46 10° ENE daylight
27 Oct - 10:34:32 10° WSW 10:43:56 73° SSE 10:53:44 10° E daylight
27 Oct - 12:38:56 10° W 12:48:34 78° S 12:58:34 10° ESE daylight
27 Oct - 14:43:34 10° WNW 14:52:52 50° SSW 15:02:26 10° SE daylight
27 Oct - 16:49:34 10° W 16:55:56 19° SW 17:02:24 10° SSW daylight
28 Oct - 08:06:50 10° SSW 08:15:02 36° SE 08:23:30 10° ENE daylight
28 Oct - 10:09:26 10° WSW 10:18:46 71° SSE 10:28:32 10° E daylight
28 Oct - 12:13:48 10° W 12:23:23 79° S 12:33:23 10° ESE daylight
28 Oct - 14:18:23 10° WNW 14:27:44 53° SSW 14:37:22 10° SE daylight
28 Oct - 16:24:08 10° W 16:30:54 21° SW 16:37:47 10° S daylight
29 Oct - 07:41:59 10° SSW 07:49:59 34° SE 07:58:14 10° E daylight
29 Oct - 09:44:20 10° WSW 09:53:37 69° SSE 10:03:19 10° E daylight
29 Oct - 11:48:38 10° W 11:58:12 80° S 12:08:10 10° E daylight
29 Oct - 13:53:13 10° WNW 14:02:36 55° SSW 14:12:17 10° SE daylight
29 Oct - 15:58:44 10° W 16:05:52 23° SW 16:13:07 10° S daylight
30 Oct - 07:17:09 10° SSW 07:24:57 32° SE 07:32:57 10° E daylight
30 Oct - 09:19:15 10° WSW 09:28:29 66° SSE 09:38:06 10° E daylight
30 Oct - 11:23:29 10° W 11:33:01 80° S 11:42:57 10° E daylight
30 Oct - 13:28:03 10° WNW 13:37:27 58° SSW 13:47:10 10° SE daylight
30 Oct - 15:33:24 10° W 15:40:49 25° SW 15:48:24 10° S daylight
31 Oct - 06:52:22 10° S 06:59:55 29° SE 07:07:39 10° E daylight
31 Oct - 08:54:11 10° SW 09:03:21 64° SSE 09:12:53 10° E daylight
31 Oct - 10:58:20 10° W 11:07:50 81° S 11:17:44 10° E daylight
31 Oct - 13:02:53 10° WNW 13:12:18 60° SSW 13:22:04 10° SE daylight
31 Oct - 15:08:05 10° W 15:15:46 27° SW 15:23:38 10° S daylight
